Simultaneous Nadir Overpasses (SNOs) Predictions

Prediction of SNOs between LANDSAT-8 and METOP-A Satellite Orbit:

Table of predicted SNOs for the next 14.0 days since TLE Epoch: 5/12/2017
Index Date (LANDSAT-8) Time (LANDSAT-8) Lat,Lon (LANDSAT-8) SZA (LANDSAT-8 ) Date (METOP-A) Time (METOP-A) Lat,Lon (METOP-A) SZA (METOP-A ) Distance(km) Time Diff (sec)
1 05/15/2017 02:40:18 -81.20, 1.16 115.33 05/15/2017 02:39:59 -81.21, 1.31 115.32 2.61 19
2 05/15/2017 03:29:44 81.21, 168.90 64.68 05/15/2017 03:30:39 81.21, 168.88 64.71 0.62 55
3 05/17/2017 22:14:35 -81.21, 67.70 115.95 05/17/2017 22:14:20 -81.21, 67.85 115.94 2.47 15
4 05/17/2017 23:04:01 81.21,-124.58 64.06 05/17/2017 23:05:00 81.22,-124.59 64.09 0.39 59
5 05/20/2017 17:48:52 -81.21, 134.22 116.54 05/20/2017 17:48:41 -81.21, 134.37 116.52 2.58 11
6 05/20/2017 18:38:18 81.22, -58.09 63.47 05/20/2017 18:39:21 81.22, -58.07 63.50 0.54 63
7 05/23/2017 13:23:09 -81.22,-159.30 117.08 05/23/2017 13:23:02 -81.22,-159.13 117.07 2.92 7
8 05/23/2017 14:12:35 81.22, 8.37 62.92 05/23/2017 14:13:42 81.22, 8.43 62.96 1.18 67
9 05/26/2017 08:57:26 -81.20, -93.21 117.64 05/26/2017 08:57:24 -81.20, -93.40 117.66 3.18 2




NCC Satellite Simultaneous Nadir Overpasses (SNOs) Prediction Service
